Weather History for Hartford, CT

Change the Weather History Date:

Thursday, May 9, 2013

  Actual Average Record
Temperature  
Mean Temperature 58 °F -  
Max Temperature 64 °F 64 °F 93 °F (2000)
Min Temperature 53 °F 43 °F 31 °F (1956)
Degree Days  
Heating Degree Days 6    
Growing Degree Days 8 (Base 50)    
Moisture  
Dew Point 57 °F    
Average Humidity 92    
Maximum Humidity 100    
Minimum Humidity 73    
Precipitation  
Precipitation 0.24 in - - ()
Sea Level Pressure  
Sea Level Pressure 29.95 in    
Wind  
Wind Speed 1 mph (SE)    
Max Wind Speed 5 mph    
Max Gust Speed -    
Visibility 7 miles    
Events Fog , Rain , Thunderstorm    
Averages and records for this station are not official NWS values.
T = Trace of Precipitation, MM = Missing Value Source: NWS Daily Summary

Daily Weather History Graph

Daily Weather History Graph

Search for Another Location

Airport:

Trip Planner

Search our weather history database for the weather conditions in past years. The results will help you decide how hot, cold, wet, or windy it might be!

Date:

Astronomy

May. 09, 2013 Rise Set
Actual Time 5:37 AM EDT 7:57 PM EDT
Civil Twilight 5:05 AM EDT 8:28 PM EDT
Nautical Twilight 4:27 AM EDT 9:07 PM EDT
Astronomical Twilight 3:44 AM EDT 9:50 PM EDT
Moon 5:20 AM EDT (5/9) 7:50 PM EDT (5/9)
Length of Visible Light 15h 23m
Length of Day
14h 20m
Waning Crescent, 0% of the Moon is Illuminated
May 9
Waning Crescent
May 9
New
May 18
First Quarter
May 25
Full
May 31
Last Quarter

Hourly Weather History & Observations

Time (EDT) Temp. Dew Point Humidity Pressure Visibility Wind Dir Wind Speed Gust Speed Precip Events Conditions
12:10 AM 60.8 °F 57.2 °F 88% 30.04 in 10.0 mi Calm Calm - N/A   Overcast
12:32 AM 60.8 °F 57.2 °F 88% 30.04 in 10.0 mi Calm Calm - N/A   Overcast
12:53 AM 59.0 °F 57.0 °F 93% 30.03 in 10.0 mi South 3.5 mph - N/A   Mostly Cloudy
1:28 AM 57.2 °F 55.4 °F 94% 30.02 in 10.0 mi SE 3.5 mph - N/A   Partly Cloudy
1:53 AM 57.9 °F 57.0 °F 97% 30.01 in 10.0 mi Calm Calm - N/A   Mostly Cloudy
2:53 AM 57.9 °F 55.0 °F 90% 29.99 in 10.0 mi Calm Calm - N/A   Mostly Cloudy
3:53 AM 55.9 °F 55.0 °F 97% 29.99 in 10.0 mi Calm Calm - N/A   Mostly Cloudy
4:46 AM 53.6 °F 53.6 °F 100% 29.97 in 1.8 mi Calm Calm - N/A   Scattered Clouds
4:53 AM 54.0 °F 54.0 °F 100% 29.97 in 2.0 mi Calm Calm - N/A   Scattered Clouds
5:03 AM 55.4 °F 53.6 °F 94% 29.97 in 4.0 mi Calm Calm - N/A   Partly Cloudy
5:06 AM 55.4 °F 53.6 °F 94% 29.97 in 1.8 mi Calm Calm - N/A   Partly Cloudy
5:17 AM 55.4 °F 53.6 °F 94% 29.97 in 0.8 mi Calm Calm - N/A   Mist
5:23 AM 53.6 °F 53.6 °F 100% 29.97 in 0.5 mi Calm Calm - N/A Fog Fog
5:40 AM 55.4 °F 53.6 °F 94% 29.98 in 0.5 mi Calm Calm - N/A Fog Fog
5:46 AM 55.4 °F 53.6 °F 94% 29.98 in 2.5 mi Calm Calm - N/A   Mostly Cloudy
5:53 AM 55.0 °F 54.0 °F 96% 29.98 in 5.0 mi Calm Calm - N/A   Mostly Cloudy
6:06 AM 53.6 °F 53.6 °F 100% 29.98 in 6.0 mi Calm Calm - N/A   Overcast
6:17 AM 55.4 °F 53.6 °F 94% 29.98 in 7.0 mi Calm Calm - N/A   Overcast
6:53 AM 55.9 °F 55.0 °F 97% 29.98 in 5.0 mi Calm Calm - N/A   Overcast
7:12 AM 55.4 °F 55.4 °F 100% 29.98 in 4.0 mi Calm Calm - N/A   Overcast
7:53 AM 57.0 °F 55.9 °F 96% 29.99 in 7.0 mi Calm Calm - N/A   Overcast
8:44 AM 57.2 °F 55.4 °F 94% 29.98 in 10.0 mi Calm Calm - N/A   Overcast
8:53 AM 57.9 °F 55.9 °F 93% 29.98 in 10.0 mi Calm Calm - N/A   Overcast
9:53 AM 62.1 °F 57.0 °F 84% 29.97 in 10.0 mi Variable 3.5 mph - N/A   Mostly Cloudy
10:53 AM 63.0 °F 57.9 °F 84% 29.96 in 10.0 mi Variable 3.5 mph - 0.01 in   Partly Cloudy
11:31 AM 62.6 °F 55.4 °F 77% 29.96 in 10.0 mi ESE 4.6 mph - N/A   Mostly Cloudy
11:53 AM 63.0 °F 55.9 °F 78% 29.96 in 10.0 mi Calm Calm - N/A   Overcast
12:03 PM 64.4 °F 57.2 °F 77% 29.96 in 10.0 mi Calm Calm - N/A   Overcast
12:38 PM 64.4 °F 55.4 °F 73% 29.95 in 10.0 mi Calm Calm - N/A   Mostly Cloudy
12:50 PM 64.4 °F 55.4 °F 73% 29.94 in 10.0 mi Calm Calm - N/A   Overcast
1:21 PM 64.4 °F 59.0 °F 83% 29.93 in 9.0 mi East 3.5 mph - 0.01 in Rain Light Rain
1:53 PM 64.0 °F 57.9 °F 80% 29.93 in 10.0 mi ESE 3.5 mph - 0.01 in Rain Light Rain
2:53 PM 63.0 °F 60.1 °F 90% 29.91 in 10.0 mi East 3.5 mph - 0.11 in   Mostly Cloudy
3:13 PM 62.6 °F 60.8 °F 94% 29.88 in 4.0 mi Calm Calm - 0.03 in Thunderstorm Overcast
3:35 PM 62.6 °F 60.8 °F 94% 29.89 in 2.5 mi Calm Calm - 0.08 in Thunderstorm Overcast
3:44 PM 62.6 °F 60.8 °F 94% 29.88 in 5.0 mi East 3.5 mph - 0.10 in Thunderstorm Overcast
4:53 PM 63.0 °F 59.0 °F 87% 29.88 in 10.0 mi Calm Calm - 0.05 in Thunderstorm Thunderstorm
5:26 PM 64.4 °F 57.2 °F 77% 29.88 in 10.0 mi South 4.6 mph - 0.01 in   Mostly Cloudy
5:53 PM 63.0 °F 57.0 °F 81% 29.88 in 10.0 mi South 4.6 mph - 0.01 in   Mostly Cloudy
6:53 PM 62.1 °F 60.1 °F 93% 29.88 in 10.0 mi Calm Calm - 0.04 in   Overcast
7:53 PM 61.0 °F 59.0 °F 93% 29.90 in 10.0 mi Calm Calm - N/A   Overcast
8:53 PM 61.0 °F 57.9 °F 90% 29.92 in 10.0 mi Calm Calm - 0.01 in   Overcast
9:53 PM 59.0 °F 57.9 °F 96% 29.92 in 10.0 mi Calm Calm - N/A   Mostly Cloudy
10:43 PM 57.2 °F 57.2 °F 100% 29.92 in 2.0 mi Calm Calm - N/A   Partly Cloudy
10:53 PM 57.9 °F 57.9 °F 100% 29.92 in 1.2 mi Calm Calm - N/A   Clear
10:57 PM 57.2 °F 57.2 °F 100% 29.92 in 0.8 mi Calm Calm - N/A   Mist
11:05 PM 57.2 °F 57.2 °F 100% 29.92 in 1.0 mi Calm Calm - N/A   Mist
11:14 PM 57.2 °F 57.2 °F 100% 29.92 in 1.5 mi Calm Calm - N/A   Scattered Clouds
11:19 PM 57.2 °F 57.2 °F 100% 29.92 in 2.0 mi South 3.5 mph - N/A   Mostly Cloudy
11:32 PM 57.2 °F 57.2 °F 100% 29.92 in 1.2 mi Calm Calm - N/A   Mostly Cloudy
11:53 PM 57.9 °F 57.9 °F 100% 29.93 in - Calm Calm - N/A   Unknown